Date,TemperatureHighF,TemperatureAvgF,TemperatureLowF,DewpointHighF,DewpointAvgF,DewpointLowF,HumidityHigh,HumidityAvg,HumidityLow,PressureMaxIn,PressureMinIn,WindSpeedMaxMPH,WindSpeedAvgMPH,GustSpeedMaxMPH,PrecipitationSumIn
2013-3-1,68,49,32,-100,-100,-100,0,0,100,0.00,40.00,0,-999,0,0.00
2013-3-2,64,50,37,-100,-100,-100,0,0,100,0.00,40.00,0,-999,0,0.00
2013-3-3,75,57,30,-100,-100,-100,0,0,100,0.00,40.00,0,-999,0,0.00
2013-3-4,86,69,47,-100,-100,-100,0,0,100,0.00,40.00,0,-999,0,0.00
2013-3-5,65,56,44,-100,-100,-100,0,0,100,0.00,40.00,0,-999,0,0.00
2013-3-6,64,51,40,-100,-100,-100,0,0,100,0.00,40.00,0,-999,0,0.00
2013-3-7,72,54,38,-100,-100,-100,0,0,100,0.00,40.00,0,-999,0,0.00
2013-3-8,65,61,58,-100,-100,-100,0,0,100,0.00,40.00,0,-999,0,0.00
2013-3-9,72,65,62,-100,-100,-100,0,0,100,0.00,40.00,0,-999,0,0.00
2013-3-10,65,58,51,-100,-100,-100,0,0,100,0.00,40.00,0,-999,0,0.00
2013-3-11,69,52,37,-100,-100,-100,0,0,100,0.00,40.00,0,-999,0,0.00
2013-3-12,77,55,32,-100,-100,-100,0,0,100,0.00,40.00,0,-999,0,0.00
2013-3-13,75,57,43,-100,-100,-100,0,0,100,0.00,40.00,0,-999,0,0.00
2013-3-14,77,59,47,-100,-100,-100,0,0,100,0.00,40.00,0,-999,0,0.00
2013-3-15,80,65,50,-100,-100,-100,0,0,100,0.00,40.00,0,-999,0,0.00
2013-3-16,83,72,54,-100,-100,-100,0,0,100,0.00,40.00,0,-999,0,0.00
2013-3-17,84,72,65,-100,-100,-100,0,0,100,0.00,40.00,0,-999,0,0.00
2013-3-18,91,71,64,-100,-100,-100,0,0,100,0.00,40.00,0,-999,0,0.00
2013-3-19,78,65,52,-100,-100,-100,0,0,100,0.00,40.00,0,-999,0,0.00
2013-3-20,71,61,54,-100,-100,-100,0,0,100,0.00,40.00,0,-999,0,0.00
2013-3-21,76,62,51,-100,-100,-100,0,0,100,0.00,40.00,0,-999,0,0.00
2013-3-22,85,71,60,-100,-100,-100,0,0,100,0.00,40.00,0,-999,0,0.00
2013-3-23,78,62,53,-100,-100,-100,0,0,100,0.00,40.00,0,-999,0,0.00
2013-3-24,63,53,43,-100,-100,-100,0,0,100,0.00,40.00,0,-999,0,0.00
2013-3-25,58,48,38,-100,-100,-100,0,0,100,0.00,40.00,0,-999,0,0.00
2013-3-26,64,48,36,-100,-100,-100,0,0,100,0.00,40.00,0,-999,0,0.00
2013-3-27,65,55,33,-100,-100,-100,0,0,100,0.00,40.00,0,-999,0,0.00
2013-3-28,70,62,56,-100,-100,-100,0,0,100,0.00,40.00,0,-999,0,0.00
2013-3-29,76,67,58,-100,-100,-100,0,0,100,0.00,40.00,0,-999,0,0.00
2013-3-30,82,71,65,-100,-100,-100,0,0,100,0.00,40.00,0,-999,0,0.00
2013-3-31,83,70,63,-100,-100,-100,0,0,100,0.00,40.00,0,-999,0,0.00